Time,TemperatureF,DewpointF,PressureIn,WindDirection,WindDirectionDegrees,WindSpeedMPH,WindSpeedGustMPH,Humidity,HourlyPrecipIn,Conditions,Clouds,dailyrainin,SoftwareType,DateUTC
2013-01-17 00:00:00,30.4,11.6,30.39,SSE,162,5.0,9.0,45,0.00,,,0.00,Weather View 32 v70,2013-01-17 08:00:00,
2013-01-17 00:05:00,30.4,11.6,30.39,SSE,162,3.0,9.0,45,0.00,,,0.00,Weather View 32 v70,2013-01-17 08:05:00,
2013-01-17 00:10:00,30.0,11.2,30.39,SSE,162,4.0,9.0,45,0.00,,,0.00,Weather View 32 v70,2013-01-17 08:10:00,
2013-01-17 00:15:00,29.8,11.1,30.39,SSE,162,6.0,9.0,45,0.00,,,0.00,Weather View 32 v70,2013-01-17 08:15:00,
2013-01-17 00:20:00,29.5,11.2,30.39,SSE,162,4.0,9.0,46,0.00,,,0.00,Weather View 32 v70,2013-01-17 08:20:00,
2013-01-17 00:25:00,29.5,11.2,30.39,SSE,162,5.0,9.0,46,0.00,,,0.00,Weather View 32 v70,2013-01-17 08:25:00,
2013-01-17 00:30:00,29.3,11.1,30.39,SSE,162,6.0,9.0,46,0.00,,,0.00,Weather View 32 v70,2013-01-17 08:30:00,
2013-01-17 00:36:00,29.3,11.1,30.39,SSE,162,4.0,9.0,46,0.00,,,0.00,Weather View 32 v70,2013-01-17 08:36:00,
2013-01-17 00:41:00,29.3,11.1,30.39,SSE,162,5.0,9.0,46,0.00,,,0.00,Weather View 32 v70,2013-01-17 08:41:00,
2013-01-17 00:46:00,29.3,11.1,30.39,SSE,162,3.0,9.0,46,0.00,,,0.00,Weather View 32 v70,2013-01-17 08:46:00,
2013-01-17 00:51:00,29.5,10.7,30.39,SSE,162,5.0,9.0,45,0.00,,,0.00,Weather View 32 v70,2013-01-17 08:51:00,
2013-01-17 00:56:00,29.5,10.7,30.39,SSE,162,5.0,9.0,45,0.00,,,0.00,Weather View 32 v70,2013-01-17 08:56:00,
2013-01-17 01:01:00,29.8,11.1,30.39,SSE,162,5.0,8.0,45,0.00,,,0.00,Weather View 32 v70,2013-01-17 09:01:00,
2013-01-17 01:06:00,29.8,11.1,30.39,SSE,162,5.0,8.0,45,0.00,,,0.00,Weather View 32 v70,2013-01-17 09:06:00,
2013-01-17 01:11:00,30.0,11.2,30.39,SSE,162,6.0,8.0,45,0.00,,,0.00,Weather View 32 v70,2013-01-17 09:11:00,
2013-01-17 01:16:00,30.0,11.2,30.39,SSE,162,4.0,8.0,45,0.00,,,0.00,Weather View 32 v70,2013-01-17 09:16:00,
2013-01-17 01:21:00,29.8,11.1,30.39,SSE,162,4.0,8.0,45,0.00,,,0.00,Weather View 32 v70,2013-01-17 09:21:00,
2013-01-17 01:26:00,29.7,10.9,30.39,SSE,162,4.0,8.0,45,0.00,,,0.00,Weather View 32 v70,2013-01-17 09:26:00,
2013-01-17 01:31:00,29.7,10.9,30.39,SSE,162,6.0,8.0,45,0.00,,,0.00,Weather View 32 v70,2013-01-17 09:31:00,
2013-01-17 01:36:00,29.7,10.9,30.39,SSE,162,4.0,8.0,45,0.00,,,0.00,Weather View 32 v70,2013-01-17 09:36:00,
2013-01-17 01:41:00,29.5,10.7,30.39,SSE,162,5.0,8.0,45,0.00,,,0.00,Weather View 32 v70,2013-01-17 09:41:00,
2013-01-17 01:46:00,29.5,10.7,30.42,SSE,162,6.0,9.0,45,0.00,,,0.00,Weather View 32 v70,2013-01-17 09:46:00,
2013-01-17 01:51:00,29.5,10.7,30.42,SSE,162,5.0,9.0,45,0.00,,,0.00,Weather View 32 v70,2013-01-17 09:51:00,
2013-01-17 01:56:00,29.3,10.6,30.42,SSE,162,5.0,9.0,45,0.00,,,0.00,Weather View 32 v70,2013-01-17 09:56:00,
2013-01-17 02:01:00,29.1,10.4,30.39,SSE,162,5.0,9.0,45,0.00,,,0.00,Weather View 32 v70,2013-01-17 10:01:00,
2013-01-17 02:06:00,28.9,10.2,30.39,SSE,162,6.0,9.0,45,0.00,,,0.00,Weather View 32 v70,2013-01-17 10:06:00,
2013-01-17 02:11:00,28.9,10.2,30.39,SSE,162,4.0,9.0,45,0.00,,,0.00,Weather View 32 v70,2013-01-17 10:11:00,
2013-01-17 02:16:00,28.9,10.2,30.39,SSE,162,6.0,9.0,45,0.00,,,0.00,Weather View 32 v70,2013-01-17 10:16:00,
2013-01-17 02:21:00,28.9,10.2,30.39,SSE,162,6.0,9.0,45,0.00,,,0.00,Weather View 32 v70,2013-01-17 10:21:00,
2013-01-17 02:26:00,28.8,10.1,30.39,SSE,162,6.0,9.0,45,0.00,,,0.00,Weather View 32 v70,2013-01-17 10:26:00,
2013-01-17 02:31:00,28.6,9.9,30.42,SSE,162,6.0,9.0,45,0.00,,,0.00,Weather View 32 v70,2013-01-17 10:31:00,
2013-01-17 02:36:00,28.6,9.9,30.42,SSE,162,5.0,9.0,45,0.00,,,0.00,Weather View 32 v70,2013-01-17 10:36:00,
2013-01-17 02:41:00,28.6,9.9,30.42,SSE,162,5.0,9.0,45,0.00,,,0.00,Weather View 32 v70,2013-01-17 10:41:00,
2013-01-17 02:46:00,28.6,9.9,30.39,SSE,162,6.0,9.0,45,0.00,,,0.00,Weather View 32 v70,2013-01-17 10:46:00,
2013-01-17 02:51:00,28.6,9.9,30.39,SSE,162,5.0,9.0,45,0.00,,,0.00,Weather View 32 v70,2013-01-17 10:51:00,
2013-01-17 02:56:00,28.4,9.8,30.39,SSE,162,4.0,9.0,45,0.00,,,0.00,Weather View 32 v70,2013-01-17 10:56:00,
2013-01-17 03:01:00,28.0,9.9,30.39,SSE,162,6.0,9.0,46,0.00,,,0.00,Weather View 32 v70,2013-01-17 11:01:00,
2013-01-17 03:06:00,27.9,9.7,30.39,SSE,162,4.0,9.0,46,0.00,,,0.00,Weather View 32 v70,2013-01-17 11:06:00,
2013-01-17 03:11:00,27.9,9.7,30.39,SSE,162,5.0,9.0,46,0.00,,,0.00,Weather View 32 v70,2013-01-17 11:11:00,
2013-01-17 03:16:00,27.5,9.4,30.39,SSE,162,3.0,9.0,46,0.00,,,0.00,Weather View 32 v70,2013-01-17 11:16:00,
2013-01-17 03:21:00,27.3,9.3,30.39,SSE,162,8.0,9.0,46,0.00,,,0.00,Weather View 32 v70,2013-01-17 11:21:00,
2013-01-17 03:26:00,27.1,9.1,30.39,SSE,162,6.0,9.0,46,0.00,,,0.00,Weather View 32 v70,2013-01-17 11:26:00,
2013-01-17 03:31:00,27.0,9.4,30.39,SSE,162,5.0,9.0,47,0.00,,,0.00,Weather View 32 v70,2013-01-17 11:31:00,
2013-01-17 03:36:00,26.8,9.2,30.39,SSE,162,5.0,9.0,47,0.00,,,0.00,Weather View 32 v70,2013-01-17 11:36:00,
2013-01-17 03:41:00,26.6,9.1,30.39,SSE,162,6.0,9.0,47,0.00,,,0.00,Weather View 32 v70,2013-01-17 11:41:00,
2013-01-17 03:47:00,26.6,9.1,30.39,SSE,162,5.0,9.0,47,0.00,,,0.00,Weather View 32 v70,2013-01-17 11:47:00,
2013-01-17 03:52:00,26.8,9.2,30.39,SSE,162,4.0,9.0,47,0.00,,,0.00,Weather View 32 v70,2013-01-17 11:52:00,
2013-01-17 03:57:00,27.0,8.9,30.39,SSE,162,8.0,9.0,46,0.00,,,0.00,Weather View 32 v70,2013-01-17 11:57:00,
2013-01-17 04:02:00,27.0,8.9,30.39,SSE,162,6.0,10.0,46,0.00,,,0.00,Weather View 32 v70,2013-01-17 12:02:00,
2013-01-17 04:07:00,26.8,8.8,30.39,SSE,162,4.0,10.0,46,0.00,,,0.00,Weather View 32 v70,2013-01-17 12:07:00,
2013-01-17 04:12:00,26.6,9.1,30.39,SSE,162,5.0,10.0,47,0.00,,,0.00,Weather View 32 v70,2013-01-17 12:12:00,
2013-01-17 04:17:00,26.2,8.7,30.39,SSE,162,4.0,10.0,47,0.00,,,0.00,Weather View 32 v70,2013-01-17 12:17:00,
2013-01-17 04:22:00,26.1,8.6,30.39,SSE,162,5.0,10.0,47,0.00,,,0.00,Weather View 32 v70,2013-01-17 12:22:00,
2013-01-17 04:27:00,26.1,8.6,30.39,SSE,162,3.0,10.0,47,0.00,,,0.00,Weather View 32 v70,2013-01-17 12:27:00,
2013-01-17 04:32:00,25.9,8.4,30.39,SSE,162,6.0,10.0,47,0.00,,,0.00,Weather View 32 v70,2013-01-17 12:32:00,
2013-01-17 04:37:00,26.1,8.6,30.39,SSE,162,6.0,10.0,47,0.00,,,0.00,Weather View 32 v70,2013-01-17 12:37:00,
2013-01-17 04:42:00,26.1,8.6,30.39,SSE,162,5.0,10.0,47,0.00,,,0.00,Weather View 32 v70,2013-01-17 12:42:00,
2013-01-17 04:47:00,26.2,8.3,30.39,SSE,162,4.0,10.0,46,0.00,,,0.00,Weather View 32 v70,2013-01-17 12:47:00,
2013-01-17 04:52:00,26.4,8.4,30.39,SSE,162,7.0,10.0,46,0.00,,,0.00,Weather View 32 v70,2013-01-17 12:52:00,
2013-01-17 04:57:00,26.6,8.6,30.39,SSE,162,5.0,10.0,46,0.00,,,0.00,Weather View 32 v70,2013-01-17 12:57:00,
2013-01-17 05:02:00,26.4,8.4,30.39,SSE,162,5.0,8.0,46,0.00,,,0.00,Weather View 32 v70,2013-01-17 13:02:00,
2013-01-17 05:07:00,26.4,8.4,30.39,SSE,162,4.0,8.0,46,0.00,,,0.00,Weather View 32 v70,2013-01-17 13:07:00,
2013-01-17 05:12:00,26.2,8.3,30.39,SSE,162,4.0,8.0,46,0.00,,,0.00,Weather View 32 v70,2013-01-17 13:12:00,
2013-01-17 05:17:00,26.2,8.3,30.39,SSE,162,5.0,8.0,46,0.00,,,0.00,Weather View 32 v70,2013-01-17 13:17:00,
2013-01-17 05:22:00,26.2,8.3,30.36,SSE,162,5.0,10.0,46,0.00,,,0.00,Weather View 32 v70,2013-01-17 13:22:00,
2013-01-17 05:27:00,26.2,8.3,30.36,SSE,162,5.0,10.0,46,0.00,,,0.00,Weather View 32 v70,2013-01-17 13:27:00,
2013-01-17 05:32:00,26.1,8.1,30.36,SSE,162,5.0,10.0,46,0.00,,,0.00,Weather View 32 v70,2013-01-17 13:32:00,
2013-01-17 05:37:00,26.1,8.1,30.36,SSE,162,6.0,10.0,46,0.00,,,0.00,Weather View 32 v70,2013-01-17 13:37:00,
2013-01-17 05:42:00,26.1,8.1,30.36,SSE,162,4.0,10.0,46,0.00,,,0.00,Weather View 32 v70,2013-01-17 13:42:00,
2013-01-17 05:47:00,25.9,7.9,30.36,SSE,162,4.0,10.0,46,0.00,,,0.00,Weather View 32 v70,2013-01-17 13:47:00,
2013-01-17 05:52:00,25.9,7.9,30.36,SSE,162,4.0,10.0,46,0.00,,,0.00,Weather View 32 v70,2013-01-17 13:52:00,
2013-01-17 05:57:00,25.9,7.9,30.36,SSE,162,4.0,10.0,46,0.00,,,0.00,Weather View 32 v70,2013-01-17 13:57:00,
2013-01-17 06:02:00,26.1,7.6,30.36,SSE,162,6.0,10.0,45,0.00,,,0.00,Weather View 32 v70,2013-01-17 14:02:00,
2013-01-17 06:07:00,26.1,7.6,30.36,SSE,162,6.0,10.0,45,0.00,,,0.00,Weather View 32 v70,2013-01-17 14:07:00,
2013-01-17 06:12:00,26.1,7.6,30.36,SSE,162,4.0,10.0,45,0.00,,,0.00,Weather View 32 v70,2013-01-17 14:12:00,
2013-01-17 06:17:00,26.1,7.6,30.36,SSE,162,4.0,10.0,45,0.00,,,0.00,Weather View 32 v70,2013-01-17 14:17:00,
2013-01-17 06:22:00,26.1,7.6,30.36,SSE,162,8.0,10.0,45,0.00,,,0.00,Weather View 32 v70,2013-01-17 14:22:00,
2013-01-17 06:27:00,26.1,7.6,30.36,SSE,162,6.0,10.0,45,0.00,,,0.00,Weather View 32 v70,2013-01-17 14:27:00,
2013-01-17 06:32:00,26.4,7.9,30.36,SSE,162,6.0,11.0,45,0.00,,,0.00,Weather View 32 v70,2013-01-17 14:32:00,
2013-01-17 06:37:00,26.6,8.1,30.36,SSE,162,6.0,11.0,45,0.00,,,0.00,Weather View 32 v70,2013-01-17 14:37:00,
2013-01-17 06:43:00,27.0,7.9,30.36,SSE,162,8.0,11.0,44,0.00,,,0.00,Weather View 32 v70,2013-01-17 14:43:00,
2013-01-17 06:48:00,27.1,8.1,30.36,SSE,162,6.0,11.0,44,0.00,,,0.00,Weather View 32 v70,2013-01-17 14:48:00,
2013-01-17 06:53:00,27.1,8.1,30.36,SSE,162,8.0,12.0,44,0.00,,,0.00,Weather View 32 v70,2013-01-17 14:53:00,
2013-01-17 06:58:00,27.3,8.3,30.36,SSE,162,7.0,12.0,44,0.00,,,0.00,Weather View 32 v70,2013-01-17 14:58:00,
2013-01-17 07:03:00,27.1,8.1,30.36,SSE,162,8.0,12.0,44,0.00,,,0.00,Weather View 32 v70,2013-01-17 15:03:00,
2013-01-17 07:08:00,27.1,8.1,30.36,SSE,162,8.0,12.0,44,0.00,,,0.00,Weather View 32 v70,2013-01-17 15:08:00,
2013-01-17 07:13:00,27.1,8.1,30.36,SSE,162,8.0,12.0,44,0.00,,,0.00,Weather View 32 v70,2013-01-17 15:13:00,
2013-01-17 07:18:00,27.1,8.1,30.36,SSE,162,5.0,12.0,44,0.00,,,0.00,Weather View 32 v70,2013-01-17 15:18:00,
2013-01-17 07:23:00,27.1,8.1,30.36,SSE,162,4.0,12.0,44,0.00,,,0.00,Weather View 32 v70,2013-01-17 15:23:00,
2013-01-17 07:28:00,27.1,8.1,30.36,SSE,162,5.0,12.0,44,0.00,,,0.00,Weather View 32 v70,2013-01-17 15:28:00,
2013-01-17 07:33:00,27.0,7.9,30.39,SSE,162,7.0,12.0,44,0.00,,,0.00,Weather View 32 v70,2013-01-17 15:33:00,
2013-01-17 07:38:00,26.8,7.8,30.39,SSE,162,4.0,12.0,44,0.00,,,0.00,Weather View 32 v70,2013-01-17 15:38:00,
2013-01-17 07:43:00,26.6,8.1,30.39,SSE,162,4.0,12.0,45,0.00,,,0.00,Weather View 32 v70,2013-01-17 15:43:00,
2013-01-17 07:48:00,26.4,7.9,30.39,SSE,162,3.0,12.0,45,0.00,,,0.00,Weather View 32 v70,2013-01-17 15:48:00,
2013-01-17 07:53:00,26.2,7.8,30.39,SSE,162,5.0,11.0,45,0.00,,,0.00,Weather View 32 v70,2013-01-17 15:53:00,
2013-01-17 07:58:00,26.1,7.6,30.39,SSE,162,5.0,11.0,45,0.00,,,0.00,Weather View 32 v70,2013-01-17 15:58:00,
2013-01-17 08:03:00,25.9,7.4,30.39,SSE,162,4.0,10.0,45,0.00,,,0.00,Weather View 32 v70,2013-01-17 16:03:00,
2013-01-17 08:08:00,25.9,7.4,30.39,SSE,162,6.0,9.0,45,0.00,,,0.00,Weather View 32 v70,2013-01-17 16:08:00,
2013-01-17 08:13:00,26.1,7.6,30.39,SSE,162,4.0,8.0,45,0.00,,,0.00,Weather View 32 v70,2013-01-17 16:13:00,
2013-01-17 08:18:00,26.1,7.6,30.39,SSE,162,4.0,8.0,45,0.00,,,0.00,Weather View 32 v70,2013-01-17 16:18:00,
2013-01-17 08:23:00,26.2,7.8,30.39,SSE,162,4.0,8.0,45,0.00,,,0.00,Weather View 32 v70,2013-01-17 16:23:00,
2013-01-17 08:28:00,26.4,7.9,30.39,SSE,162,5.0,8.0,45,0.00,,,0.00,Weather View 32 v70,2013-01-17 16:28:00,
2013-01-17 08:33:00,27.3,8.3,30.39,SSE,162,4.0,8.0,44,0.00,,,0.00,Weather View 32 v70,2013-01-17 16:33:00,
2013-01-17 08:38:00,27.7,8.6,30.39,SSE,162,6.0,8.0,44,0.00,,,0.00,Weather View 32 v70,2013-01-17 16:38:00,
2013-01-17 08:43:00,28.4,9.3,30.39,SSE,162,6.0,8.0,44,0.00,,,0.00,Weather View 32 v70,2013-01-17 16:43:00,
2013-01-17 08:48:00,29.1,9.4,30.39,SSE,162,8.0,8.0,43,0.00,,,0.00,Weather View 32 v70,2013-01-17 16:48:00,
2013-01-17 08:53:00,30.9,10.5,30.39,SSE,162,7.0,8.0,42,0.00,,,0.00,Weather View 32 v70,2013-01-17 16:53:00,
2013-01-17 08:58:00,32.2,11.6,30.39,SSE,162,8.0,8.0,42,0.00,,,0.00,Weather View 32 v70,2013-01-17 16:58:00,
2013-01-17 09:03:00,32.5,12.0,30.39,SSE,162,4.0,10.0,42,0.00,,,0.00,Weather View 32 v70,2013-01-17 17:03:00,
2013-01-17 09:08:00,33.1,12.5,30.39,SSE,162,8.0,10.0,42,0.00,,,0.00,Weather View 32 v70,2013-01-17 17:08:00,
2013-01-17 09:13:00,33.8,12.6,30.39,SSE,162,8.0,10.0,41,0.00,,,0.00,Weather View 32 v70,2013-01-17 17:13:00,
2013-01-17 09:18:00,34.0,12.7,30.39,SSE,162,3.0,10.0,41,0.00,,,0.00,Weather View 32 v70,2013-01-17 17:18:00,
2013-01-17 09:23:00,34.0,12.7,30.39,SSE,162,4.0,10.0,41,0.00,,,0.00,Weather View 32 v70,2013-01-17 17:23:00,
2013-01-17 09:28:00,33.8,12.6,30.39,SSE,162,4.0,10.0,41,0.00,,,0.00,Weather View 32 v70,2013-01-17 17:28:00,
2013-01-17 09:33:00,34.0,12.7,30.39,SSE,162,8.0,10.0,41,0.00,,,0.00,Weather View 32 v70,2013-01-17 17:33:00,
2013-01-17 09:38:00,34.0,12.7,30.39,SSE,162,5.0,10.0,41,0.00,,,0.00,Weather View 32 v70,2013-01-17 17:38:00,
2013-01-17 09:43:00,34.0,12.7,30.39,SSE,162,6.0,10.0,41,0.00,,,0.00,Weather View 32 v70,2013-01-17 17:43:00,
2013-01-17 09:48:00,34.3,13.1,30.39,SSE,162,4.0,10.0,41,0.00,,,0.00,Weather View 32 v70,2013-01-17 17:48:00,
2013-01-17 09:53:00,34.7,13.4,30.39,SSE,162,5.0,10.0,41,0.00,,,0.00,Weather View 32 v70,2013-01-17 17:53:00,
2013-01-17 09:59:00,35.2,13.9,30.39,SSE,162,5.0,10.0,41,0.00,,,0.00,Weather View 32 v70,2013-01-17 17:59:00,
2013-01-17 10:04:00,36.0,14.0,30.39,SSE,162,4.0,10.0,40,0.00,,,0.00,Weather View 32 v70,2013-01-17 18:04:00,
2013-01-17 10:09:00,36.3,14.3,30.39,SSE,162,8.0,13.0,40,0.00,,,0.00,Weather View 32 v70,2013-01-17 18:09:00,
2013-01-17 10:14:00,36.5,14.4,30.39,SSE,162,6.0,13.0,40,0.00,,,0.00,Weather View 32 v70,2013-01-17 18:14:00,
2013-01-17 10:19:00,36.9,14.8,30.39,SSE,162,4.0,13.0,40,0.00,,,0.00,Weather View 32 v70,2013-01-17 18:19:00,
2013-01-17 10:24:00,37.6,15.4,30.39,SSE,162,6.0,13.0,40,0.00,,,0.00,Weather View 32 v70,2013-01-17 18:24:00,
2013-01-17 10:29:00,37.6,15.4,30.39,SSE,162,8.0,13.0,40,0.00,,,0.00,Weather View 32 v70,2013-01-17 18:29:00,
2013-01-17 10:34:00,38.7,16.4,30.39,SSE,162,9.0,13.0,40,0.00,,,0.00,Weather View 32 v70,2013-01-17 18:34:00,
2013-01-17 10:39:00,38.7,16.4,30.39,SSE,162,4.0,13.0,40,0.00,,,0.00,Weather View 32 v70,2013-01-17 18:39:00,
2013-01-17 10:44:00,39.0,16.7,30.39,SSE,162,6.0,13.0,40,0.00,,,0.00,Weather View 32 v70,2013-01-17 18:44:00,
2013-01-17 10:49:00,39.4,16.5,30.39,SSE,162,5.0,13.0,39,0.00,,,0.00,Weather View 32 v70,2013-01-17 18:49:00,
2013-01-17 10:54:00,39.9,16.9,30.39,SSE,162,6.0,13.0,39,0.00,,,0.00,Weather View 32 v70,2013-01-17 18:54:00,
2013-01-17 10:59:00,40.3,17.3,30.39,SSE,162,6.0,13.0,39,0.00,,,0.00,Weather View 32 v70,2013-01-17 18:59:00,
2013-01-17 11:04:00,40.6,17.6,30.36,SSE,162,6.0,13.0,39,0.00,,,0.00,Weather View 32 v70,2013-01-17 19:04:00,
2013-01-17 11:09:00,41.0,17.9,30.36,SSE,162,4.0,11.0,39,0.00,,,0.00,Weather View 32 v70,2013-01-17 19:09:00,
2013-01-17 11:14:00,41.2,18.1,30.36,SSE,162,4.0,11.0,39,0.00,,,0.00,Weather View 32 v70,2013-01-17 19:14:00,
2013-01-17 11:19:00,41.5,18.4,30.36,SSE,162,6.0,11.0,39,0.00,,,0.00,Weather View 32 v70,2013-01-17 19:19:00,
2013-01-17 11:24:00,41.7,18.6,30.36,SSE,151,4.0,11.0,39,0.00,,,0.00,Weather View 32 v70,2013-01-17 19:24:00,
2013-01-17 11:29:00,41.7,18.6,30.36,SSE,162,8.0,11.0,39,0.00,,,0.00,Weather View 32 v70,2013-01-17 19:29:00,
2013-01-17 11:34:00,41.7,18.6,30.36,SSE,162,10.0,12.0,39,0.00,,,0.00,Weather View 32 v70,2013-01-17 19:34:00,
2013-01-17 11:39:00,42.1,18.9,30.36,SSE,162,5.0,12.0,39,0.00,,,0.00,Weather View 32 v70,2013-01-17 19:39:00,
2013-01-17 11:44:00,42.3,19.0,30.36,SSE,162,6.0,12.0,39,0.00,,,0.00,Weather View 32 v70,2013-01-17 19:44:00,
2013-01-17 11:49:00,42.4,19.2,30.36,SSE,162,8.0,13.0,39,0.00,,,0.00,Weather View 32 v70,2013-01-17 19:49:00,
2013-01-17 11:54:00,43.0,19.7,30.36,SSE,162,5.0,13.0,39,0.00,,,0.00,Weather View 32 v70,2013-01-17 19:54:00,
2013-01-17 11:59:00,43.3,20.0,30.36,SSE,162,8.0,13.0,39,0.00,,,0.00,Weather View 32 v70,2013-01-17 19:59:00,
2013-01-17 12:04:00,44.1,20.0,30.33,SSE,161,4.0,13.0,38,0.00,,,0.00,Weather View 32 v70,2013-01-17 20:04:00,
2013-01-17 12:09:00,44.2,20.2,30.33,SSE,162,6.0,13.0,38,0.00,,,0.00,Weather View 32 v70,2013-01-17 20:09:00,
2013-01-17 12:14:00,44.6,20.5,30.33,SSE,162,6.0,13.0,38,0.00,,,0.00,Weather View 32 v70,2013-01-17 20:14:00,
2013-01-17 12:19:00,45.0,20.8,30.33,SSE,162,7.0,13.0,38,0.00,,,0.00,Weather View 32 v70,2013-01-17 20:19:00,
2013-01-17 12:25:00,45.0,20.8,30.33,SSE,162,10.0,13.0,38,0.00,,,0.00,Weather View 32 v70,2013-01-17 20:25:00,
2013-01-17 12:30:00,45.1,21.0,30.33,SSE,162,8.0,13.0,38,0.00,,,0.00,Weather View 32 v70,2013-01-17 20:30:00,
2013-01-17 12:35:00,45.9,21.6,30.33,SSE,162,8.0,13.0,38,0.00,,,0.00,Weather View 32 v70,2013-01-17 20:35:00,
2013-01-17 12:40:00,46.2,22.0,30.33,SSE,162,6.0,13.0,38,0.00,,,0.00,Weather View 32 v70,2013-01-17 20:40:00,
2013-01-17 12:45:00,46.2,22.0,30.33,SSE,162,6.0,13.0,38,0.00,,,0.00,Weather View 32 v70,2013-01-17 20:45:00,
2013-01-17 12:50:00,46.6,22.3,30.33,SSE,162,6.0,11.0,38,0.00,,,0.00,Weather View 32 v70,2013-01-17 20:50:00,
2013-01-17 12:55:00,46.8,22.5,30.33,SSE,162,6.0,11.0,38,0.00,,,0.00,Weather View 32 v70,2013-01-17 20:55:00,
2013-01-17 13:00:00,47.1,22.8,30.33,SSE,162,3.0,11.0,38,0.00,,,0.00,Weather View 32 v70,2013-01-17 21:00:00,
2013-01-17 13:05:00,47.3,22.9,30.30,SSE,162,8.0,11.0,38,0.00,,,0.00,Weather View 32 v70,2013-01-17 21:05:00,
2013-01-17 13:10:00,47.5,23.1,30.30,SSE,162,9.0,11.0,38,0.00,,,0.00,Weather View 32 v70,2013-01-17 21:10:00,
2013-01-17 13:15:00,47.7,23.3,30.30,SSE,162,8.0,11.0,38,0.00,,,0.00,Weather View 32 v70,2013-01-17 21:15:00,
2013-01-17 13:20:00,48.0,23.6,30.30,SSE,162,8.0,11.0,38,0.00,,,0.00,Weather View 32 v70,2013-01-17 21:20:00,
2013-01-17 13:25:00,48.4,23.3,30.30,SSE,162,6.0,11.0,37,0.00,,,0.00,Weather View 32 v70,2013-01-17 21:25:00,
2013-01-17 13:30:00,48.7,23.6,30.30,SSE,162,8.0,11.0,37,0.00,,,0.00,Weather View 32 v70,2013-01-17 21:30:00,
2013-01-17 13:35:00,48.7,23.6,30.30,SSE,162,6.0,11.0,37,0.00,,,0.00,Weather View 32 v70,2013-01-17 21:35:00,
2013-01-17 13:40:00,48.9,23.7,30.30,SSE,162,6.0,11.0,37,0.00,,,0.00,Weather View 32 v70,2013-01-17 21:40:00,
2013-01-17 13:45:00,48.9,23.7,30.30,SSE,162,5.0,11.0,37,0.00,,,0.00,Weather View 32 v70,2013-01-17 21:45:00,
2013-01-17 13:50:00,48.7,23.6,30.30,SSE,162,6.0,11.0,37,0.00,,,0.00,Weather View 32 v70,2013-01-17 21:50:00,
2013-01-17 13:55:00,48.9,23.7,30.30,SSE,162,5.0,11.0,37,0.00,,,0.00,Weather View 32 v70,2013-01-17 21:55:00,
2013-01-17 14:00:00,48.9,23.7,30.30,SSE,162,6.0,11.0,37,0.00,,,0.00,Weather View 32 v70,2013-01-17 22:00:00,
2013-01-17 14:05:00,48.6,23.4,30.30,SSE,162,4.0,11.0,37,0.00,,,0.00,Weather View 32 v70,2013-01-17 22:05:00,
2013-01-17 14:10:00,48.6,23.4,30.30,SSE,162,8.0,11.0,37,0.00,,,0.00,Weather View 32 v70,2013-01-17 22:10:00,
2013-01-17 14:15:00,48.6,23.4,30.30,SSE,162,8.0,11.0,37,0.00,,,0.00,Weather View 32 v70,2013-01-17 22:15:00,
2013-01-17 14:20:00,48.4,23.3,30.30,SSE,162,5.0,11.0,37,0.00,,,0.00,Weather View 32 v70,2013-01-17 22:20:00,
2013-01-17 14:25:00,48.4,23.3,30.30,SSE,162,7.0,11.0,37,0.00,,,0.00,Weather View 32 v70,2013-01-17 22:25:00,
2013-01-17 14:30:00,48.4,23.3,30.30,SSE,162,6.0,11.0,37,0.00,,,0.00,Weather View 32 v70,2013-01-17 22:30:00,
2013-01-17 14:35:00,48.4,23.3,30.30,SSE,162,3.0,11.0,37,0.00,,,0.00,Weather View 32 v70,2013-01-17 22:35:00,
2013-01-17 14:40:00,48.4,23.3,30.30,SSE,162,3.0,11.0,37,0.00,,,0.00,Weather View 32 v70,2013-01-17 22:40:00,
2013-01-17 14:45:00,48.2,23.1,30.30,SSE,162,5.0,11.0,37,0.00,,,0.00,Weather View 32 v70,2013-01-17 22:45:00,
2013-01-17 14:50:00,48.2,23.1,30.30,SSE,161,5.0,11.0,37,0.00,,,0.00,Weather View 32 v70,2013-01-17 22:50:00,
2013-01-17 14:55:00,48.2,23.1,30.30,SSE,162,4.0,11.0,37,0.00,,,0.00,Weather View 32 v70,2013-01-17 22:55:00,
2013-01-17 15:00:00,48.2,23.1,30.30,SSE,162,6.0,11.0,37,0.00,,,0.00,Weather View 32 v70,2013-01-17 23:00:00,
2013-01-17 15:05:00,48.0,23.6,30.30,SSE,162,8.0,11.0,38,0.00,,,0.00,Weather View 32 v70,2013-01-17 23:05:00,
2013-01-17 15:10:00,47.8,23.4,30.30,SSE,162,6.0,11.0,38,0.00,,,0.00,Weather View 32 v70,2013-01-17 23:10:00,
2013-01-17 15:15:00,47.7,23.3,30.30,SSE,162,5.0,11.0,38,0.00,,,0.00,Weather View 32 v70,2013-01-17 23:15:00,
2013-01-17 15:20:00,47.7,23.3,30.30,SSE,162,6.0,11.0,38,0.00,,,0.00,Weather View 32 v70,2013-01-17 23:20:00,
2013-01-17 15:25:00,47.5,23.1,30.30,SSE,162,6.0,11.0,38,0.00,,,0.00,Weather View 32 v70,2013-01-17 23:25:00,
2013-01-17 15:30:00,47.5,23.1,30.30,SSE,162,3.0,11.0,38,0.00,,,0.00,Weather View 32 v70,2013-01-17 23:30:00,
2013-01-17 15:36:00,47.1,22.8,30.30,SSE,162,5.0,11.0,38,0.00,,,0.00,Weather View 32 v70,2013-01-17 23:36:00,
2013-01-17 15:40:00,46.8,22.5,30.30,SSE,162,8.0,11.0,38,0.00,,,0.00,Weather View 32 v70,2013-01-17 23:40:00,
2013-01-17 15:46:00,46.8,22.5,30.30,SSE,162,6.0,11.0,38,0.00,,,0.00,Weather View 32 v70,2013-01-17 23:46:00,
2013-01-17 15:51:00,46.6,21.7,30.30,SSE,162,6.0,11.0,37,0.00,,,0.00,Weather View 32 v70,2013-01-17 23:51:00,
2013-01-17 15:56:00,46.4,22.1,30.30,SSE,162,4.0,11.0,38,0.00,,,0.00,Weather View 32 v70,2013-01-17 23:56:00,
2013-01-17 16:01:00,46.2,22.0,30.30,SSE,162,4.0,11.0,38,0.00,,,0.00,Weather View 32 v70,2013-01-18 00:01:00,
2013-01-17 16:06:00,45.3,21.2,30.30,SSE,162,5.0,9.0,38,0.00,,,0.00,Weather View 32 v70,2013-01-18 00:06:00,
2013-01-17 16:11:00,45.1,21.0,30.30,SSE,162,5.0,9.0,38,0.00,,,0.00,Weather View 32 v70,2013-01-18 00:11:00,
2013-01-17 16:16:00,45.0,20.8,30.30,SSE,162,4.0,8.0,38,0.00,,,0.00,Weather View 32 v70,2013-01-18 00:16:00,
2013-01-17 16:21:00,44.6,20.5,30.30,SSE,162,3.0,8.0,38,0.00,,,0.00,Weather View 32 v70,2013-01-18 00:21:00,
2013-01-17 16:26:00,44.6,20.5,30.30,SSE,162,4.0,8.0,38,0.00,,,0.00,Weather View 32 v70,2013-01-18 00:26:00,
2013-01-17 16:30:00,43.7,19.7,30.30,SSE,162,3.0,8.0,38,0.00,,,0.00,Weather View 32 v70,2013-01-18 00:30:00,
2013-01-17 16:31:00,44.1,20.0,30.30,SSE,162,4.0,8.0,38,0.00,,,0.00,Weather View 32 v70,2013-01-18 00:31:00,
2013-01-17 16:36:00,43.2,19.2,30.30,SSE,161,0.0,8.0,38,0.00,,,0.00,Weather View 32 v70,2013-01-18 00:36:00,
2013-01-17 16:41:00,42.6,19.4,30.30,SSE,162,0.0,8.0,39,0.00,,,0.00,Weather View 32 v70,2013-01-18 00:41:00,
2013-01-17 16:46:00,42.1,18.9,30.30,SSE,162,4.0,8.0,39,0.00,,,0.00,Weather View 32 v70,2013-01-18 00:46:00,
2013-01-17 16:51:00,41.9,18.7,30.30,SSE,162,3.0,8.0,39,0.00,,,0.00,Weather View 32 v70,2013-01-18 00:51:00,
2013-01-17 16:56:00,41.7,18.6,30.30,SSE,162,4.0,8.0,39,0.00,,,0.00,Weather View 32 v70,2013-01-18 00:56:00,
2013-01-17 17:01:00,41.2,18.1,30.30,SSE,162,3.0,8.0,39,0.00,,,0.00,Weather View 32 v70,2013-01-18 01:01:00,
2013-01-17 17:06:00,39.7,16.8,30.30,SSE,162,3.0,8.0,39,0.00,,,0.00,Weather View 32 v70,2013-01-18 01:06:00,
2013-01-17 17:11:00,39.2,16.3,30.30,SSE,162,3.0,8.0,39,0.00,,,0.00,Weather View 32 v70,2013-01-18 01:11:00,
2013-01-17 17:16:00,39.0,16.7,30.30,SSE,162,4.0,8.0,40,0.00,,,0.00,Weather View 32 v70,2013-01-18 01:16:00,
2013-01-17 17:21:00,38.8,16.6,30.30,SSE,162,3.0,6.0,40,0.00,,,0.00,Weather View 32 v70,2013-01-18 01:21:00,
2013-01-17 17:26:00,38.7,16.4,30.30,SSE,162,2.0,6.0,40,0.00,,,0.00,Weather View 32 v70,2013-01-18 01:26:00,
2013-01-17 17:30:00,38.1,15.9,30.30,SSE,162,3.0,5.0,40,0.00,,,0.00,Weather View 32 v70,2013-01-18 01:30:00,
2013-01-17 17:31:00,38.5,16.2,30.30,SSE,162,0.0,5.0,40,0.00,,,0.00,Weather View 32 v70,2013-01-18 01:31:00,
2013-01-17 17:36:00,37.9,15.7,30.30,SSE,162,3.0,6.0,40,0.00,,,0.00,Weather View 32 v70,2013-01-18 01:36:00,
2013-01-17 17:41:00,37.8,15.6,30.30,SSE,162,5.0,6.0,40,0.00,,,0.00,Weather View 32 v70,2013-01-18 01:41:00,
2013-01-17 17:46:00,37.6,15.4,30.30,SSE,162,3.0,6.0,40,0.00,,,0.00,Weather View 32 v70,2013-01-18 01:46:00,
2013-01-17 17:51:00,37.4,15.3,30.30,SSE,162,3.0,6.0,40,0.00,,,0.00,Weather View 32 v70,2013-01-18 01:51:00,
2013-01-17 17:56:00,37.0,14.9,30.30,SSE,162,5.0,6.0,40,0.00,,,0.00,Weather View 32 v70,2013-01-18 01:56:00,
2013-01-17 18:01:00,36.7,14.6,30.30,SSE,162,3.0,6.0,40,0.00,,,0.00,Weather View 32 v70,2013-01-18 02:01:00,
2013-01-17 18:06:00,36.3,14.3,30.30,SSE,162,4.0,6.0,40,0.00,,,0.00,Weather View 32 v70,2013-01-18 02:06:00,
2013-01-17 18:12:00,36.0,14.0,30.30,SSE,162,4.0,6.0,40,0.00,,,0.00,Weather View 32 v70,2013-01-18 02:12:00,
2013-01-17 18:17:00,35.8,13.8,30.30,SSE,162,4.0,6.0,40,0.00,,,0.00,Weather View 32 v70,2013-01-18 02:17:00,
2013-01-17 18:22:00,35.8,14.4,30.30,SSE,162,3.0,6.0,41,0.00,,,0.00,Weather View 32 v70,2013-01-18 02:22:00,
2013-01-17 18:27:00,35.8,14.4,30.30,SSE,162,6.0,7.0,41,0.00,,,0.00,Weather View 32 v70,2013-01-18 02:27:00,
2013-01-17 18:30:00,36.0,14.5,30.30,SSE,162,6.0,8.0,41,0.00,,,0.00,Weather View 32 v70,2013-01-18 02:30:00,
2013-01-17 18:32:00,36.0,14.5,30.30,SSE,162,4.0,8.0,41,0.00,,,0.00,Weather View 32 v70,2013-01-18 02:32:00,
2013-01-17 18:37:00,35.6,14.2,30.30,SSE,162,6.0,8.0,41,0.00,,,0.00,Weather View 32 v70,2013-01-18 02:37:00,
2013-01-17 18:42:00,35.4,14.0,30.30,SSE,161,4.0,8.0,41,0.00,,,0.00,Weather View 32 v70,2013-01-18 02:42:00,
2013-01-17 18:47:00,35.2,13.9,30.30,SSE,162,4.0,8.0,41,0.00,,,0.00,Weather View 32 v70,2013-01-18 02:47:00,
2013-01-17 18:52:00,35.1,13.7,30.30,SSE,162,7.0,8.0,41,0.00,,,0.00,Weather View 32 v70,2013-01-18 02:52:00,
2013-01-17 18:57:00,34.9,13.5,30.30,SSE,162,4.0,9.0,41,0.00,,,0.00,Weather View 32 v70,2013-01-18 02:57:00,
2013-01-17 19:02:00,34.7,13.4,30.30,SSE,162,4.0,9.0,41,0.00,,,0.00,Weather View 32 v70,2013-01-18 03:02:00,
2013-01-17 19:07:00,34.5,13.2,30.30,SSE,162,6.0,9.0,41,0.00,,,0.00,Weather View 32 v70,2013-01-18 03:07:00,
2013-01-17 19:12:00,34.3,13.6,30.30,SSE,162,3.0,9.0,42,0.00,,,0.00,Weather View 32 v70,2013-01-18 03:12:00,
2013-01-17 19:17:00,34.2,13.4,30.30,SSE,162,4.0,9.0,42,0.00,,,0.00,Weather View 32 v70,2013-01-18 03:17:00,
2013-01-17 19:22:00,34.0,13.3,30.30,SSE,162,6.0,9.0,42,0.00,,,0.00,Weather View 32 v70,2013-01-18 03:22:00,
2013-01-17 19:27:00,33.8,13.1,30.30,SSE,162,4.0,9.0,42,0.00,,,0.00,Weather View 32 v70,2013-01-18 03:27:00,
2013-01-17 19:30:00,33.6,13.0,30.30,SSE,162,8.0,9.0,42,0.00,,,0.00,Weather View 32 v70,2013-01-18 03:30:00,
2013-01-17 19:32:00,33.8,13.1,30.30,SSE,162,4.0,9.0,42,0.00,,,0.00,Weather View 32 v70,2013-01-18 03:32:00,
2013-01-17 19:37:00,33.4,12.8,30.30,SSE,162,7.0,9.0,42,0.00,,,0.00,Weather View 32 v70,2013-01-18 03:37:00,
2013-01-17 19:42:00,33.3,12.6,30.30,SSE,162,6.0,9.0,42,0.00,,,0.00,Weather View 32 v70,2013-01-18 03:42:00,
2013-01-17 19:47:00,33.3,12.6,30.30,SSE,162,4.0,9.0,42,0.00,,,0.00,Weather View 32 v70,2013-01-18 03:47:00,
2013-01-17 19:52:00,33.3,12.6,30.30,SSE,162,4.0,9.0,42,0.00,,,0.00,Weather View 32 v70,2013-01-18 03:52:00,
2013-01-17 19:57:00,33.1,12.5,30.30,SSE,162,4.0,8.0,42,0.00,,,0.00,Weather View 32 v70,2013-01-18 03:57:00,
2013-01-17 20:02:00,33.1,12.5,30.30,SSE,162,3.0,8.0,42,0.00,,,0.00,Weather View 32 v70,2013-01-18 04:02:00,
2013-01-17 20:07:00,32.7,12.1,30.30,SSE,162,5.0,8.0,42,0.00,,,0.00,Weather View 32 v70,2013-01-18 04:07:00,
2013-01-17 20:12:00,32.5,12.0,30.30,SSE,162,4.0,8.0,42,0.00,,,0.00,Weather View 32 v70,2013-01-18 04:12:00,
2013-01-17 20:17:00,32.5,12.5,30.30,SSE,162,3.0,8.0,43,0.00,,,0.00,Weather View 32 v70,2013-01-18 04:17:00,
2013-01-17 20:22:00,32.4,12.3,30.30,SSE,162,4.0,8.0,43,0.00,,,0.00,Weather View 32 v70,2013-01-18 04:22:00,
2013-01-17 20:27:00,32.2,12.2,30.30,SSE,162,4.0,8.0,43,0.00,,,0.00,Weather View 32 v70,2013-01-18 04:27:00,
2013-01-17 20:30:00,31.5,11.5,30.30,SSE,162,3.0,8.0,43,0.00,,,0.00,Weather View 32 v70,2013-01-18 04:30:00,
2013-01-17 20:32:00,31.8,11.9,30.30,SSE,162,3.0,8.0,43,0.00,,,0.00,Weather View 32 v70,2013-01-18 04:32:00,
2013-01-17 20:37:00,31.1,11.2,30.30,SSE,162,3.0,8.0,43,0.00,,,0.00,Weather View 32 v70,2013-01-18 04:37:00,
2013-01-17 20:42:00,30.7,10.9,30.30,SSE,162,4.0,8.0,43,0.00,,,0.00,Weather View 32 v70,2013-01-18 04:42:00,
2013-01-17 20:47:00,30.7,10.9,30.30,SSE,162,3.0,8.0,43,0.00,,,0.00,Weather View 32 v70,2013-01-18 04:47:00,
2013-01-17 20:52:00,30.4,10.5,30.30,SSE,162,2.0,8.0,43,0.00,,,0.00,Weather View 32 v70,2013-01-18 04:52:00,
2013-01-17 20:57:00,30.2,10.9,30.30,SSE,162,3.0,8.0,44,0.00,,,0.00,Weather View 32 v70,2013-01-18 04:57:00,
2013-01-17 21:00:00,30.2,10.9,30.30,SSE,162,3.0,8.0,44,0.00,,,0.00,Weather View 32 v70,2013-01-18 05:00:00,
2013-01-17 21:06:00,30.0,11.2,30.30,SSE,162,5.0,6.0,45,0.00,,,0.00,Weather View 32 v70,2013-01-18 05:06:00,
2013-01-17 21:11:00,29.8,11.1,30.30,SSE,162,4.0,6.0,45,0.00,,,0.00,Weather View 32 v70,2013-01-18 05:11:00,
2013-01-17 21:16:00,30.0,11.2,30.30,SSE,162,3.0,6.0,45,0.00,,,0.00,Weather View 32 v70,2013-01-18 05:16:00,
2013-01-17 21:21:00,29.8,11.1,30.30,SSE,162,4.0,6.0,45,0.00,,,0.00,Weather View 32 v70,2013-01-18 05:21:00,
2013-01-17 21:26:00,30.0,11.2,30.30,SSE,162,5.0,6.0,45,0.00,,,0.00,Weather View 32 v70,2013-01-18 05:26:00,
2013-01-17 21:30:00,30.0,11.2,30.33,SSE,162,8.0,8.0,45,0.00,,,0.00,Weather View 32 v70,2013-01-18 05:30:00,
2013-01-17 21:31:00,30.0,11.2,30.30,SSE,162,3.0,6.0,45,0.00,,,0.00,Weather View 32 v70,2013-01-18 05:31:00,
2013-01-17 21:36:00,30.0,11.2,30.33,SSE,162,5.0,8.0,45,0.00,,,0.00,Weather View 32 v70,2013-01-18 05:36:00,
2013-01-17 21:41:00,29.8,11.1,30.33,SSE,162,4.0,8.0,45,0.00,,,0.00,Weather View 32 v70,2013-01-18 05:41:00,
2013-01-17 21:46:00,29.8,11.1,30.33,SSE,162,4.0,8.0,45,0.00,,,0.00,Weather View 32 v70,2013-01-18 05:46:00,
2013-01-17 21:52:00,29.8,11.1,30.33,SSE,162,6.0,8.0,45,0.00,,,0.00,Weather View 32 v70,2013-01-18 05:52:00,
2013-01-17 21:57:00,29.8,11.1,30.33,SSE,162,4.0,8.0,45,0.00,,,0.00,Weather View 32 v70,2013-01-18 05:57:00,
2013-01-17 22:02:00,29.8,11.1,30.33,SSE,162,6.0,8.0,45,0.00,,,0.00,Weather View 32 v70,2013-01-18 06:02:00,
2013-01-17 22:07:00,30.2,10.9,30.30,SSE,162,6.0,8.0,44,0.00,,,0.00,Weather View 32 v70,2013-01-18 06:07:00,
2013-01-17 22:12:00,30.2,10.9,30.30,SSE,162,6.0,8.0,44,0.00,,,0.00,Weather View 32 v70,2013-01-18 06:12:00,
2013-01-17 22:17:00,30.0,10.7,30.30,SSE,162,6.0,8.0,44,0.00,,,0.00,Weather View 32 v70,2013-01-18 06:17:00,
2013-01-17 22:22:00,30.0,10.7,30.33,SSE,162,4.0,8.0,44,0.00,,,0.00,Weather View 32 v70,2013-01-18 06:22:00,
2013-01-17 22:27:00,29.8,10.6,30.33,SSE,162,5.0,8.0,44,0.00,,,0.00,Weather View 32 v70,2013-01-18 06:27:00,
2013-01-17 22:30:00,29.5,10.2,30.30,SSE,162,4.0,8.0,44,0.00,,,0.00,Weather View 32 v70,2013-01-18 06:30:00,
2013-01-17 22:32:00,29.7,10.4,30.33,SSE,162,4.0,8.0,44,0.00,,,0.00,Weather View 32 v70,2013-01-18 06:32:00,
2013-01-17 22:37:00,29.3,10.6,30.30,SSE,162,4.0,8.0,45,0.00,,,0.00,Weather View 32 v70,2013-01-18 06:37:00,
2013-01-17 22:45:00,29.3,10.6,30.30,SSE,162,4.0,8.0,45,0.00,,,0.00,Weather View 32 v70,2013-01-18 06:45:00,
2013-01-17 23:00:00,29.7,10.4,30.30,SSE,162,6.0,8.0,44,0.00,,,0.00,Weather View 32 v70,2013-01-18 07:00:00,
2013-01-17 23:07:00,29.7,10.4,30.30,SSE,162,5.0,11.0,44,0.00,,,0.00,Weather View 32 v70,2013-01-18 07:07:00,
2013-01-17 23:12:00,29.5,10.2,30.30,SSE,162,4.0,11.0,44,0.00,,,0.00,Weather View 32 v70,2013-01-18 07:12:00,
2013-01-17 23:17:00,29.5,10.2,30.30,SSE,162,5.0,11.0,44,0.00,,,0.00,Weather View 32 v70,2013-01-18 07:17:00,
2013-01-17 23:22:00,29.5,10.2,30.30,SSE,162,4.0,11.0,44,0.00,,,0.00,Weather View 32 v70,2013-01-18 07:22:00,
2013-01-17 23:27:00,29.5,10.2,30.30,SSE,162,8.0,11.0,44,0.00,,,0.00,Weather View 32 v70,2013-01-18 07:27:00,
2013-01-17 23:32:00,29.5,10.2,30.30,SSE,162,4.0,11.0,44,0.00,,,0.00,Weather View 32 v70,2013-01-18 07:32:00,
2013-01-17 23:37:00,29.5,10.2,30.30,SSE,162,4.0,11.0,44,0.00,,,0.00,Weather View 32 v70,2013-01-18 07:37:00,
2013-01-17 23:42:00,29.5,10.2,30.30,SSE,162,4.0,11.0,44,0.00,,,0.00,Weather View 32 v70,2013-01-18 07:42:00,
2013-01-17 23:47:00,29.3,10.1,30.30,SSE,162,6.0,11.0,44,0.00,,,0.00,Weather View 32 v70,2013-01-18 07:47:00,
2013-01-17 23:52:00,29.1,9.9,30.30,SSE,162,5.0,11.0,44,0.00,,,0.00,Weather View 32 v70,2013-01-18 07:52:00,
2013-01-17 23:57:00,28.9,9.7,30.30,SSE,162,8.0,11.0,44,0.00,,,0.00,Weather View 32 v70,2013-01-18 07:57:00,